Regional Weather Roundup
Issued by NWS

Home | Current Version | Previous Version | Graphics & Text | Print | Product List | Glossary On
Versions: 1 2 3 4 5 6 7 8 9 10 11 12 13 14 15 16 17 18 19 20 21 22 23 24 25 26 27 28 29 30 31 32 33 34 35 36 37 38 39 40 41 42 43 44 45 46 47 48 49 50
000
ASUS45 KSLC 011910
RWRUT

UTAH REGIONAL WEATHER ROUNDUP
NATIONAL WEATHER SERVICE SALT LAKE CITY UT
100 PM MDT FRI AUG 01 2014

UTZ001>011-023>025-012000-

NORTHERN UTAH

CITY           SKY/WX    TMP DP  RH WIND       PRES   REMARKS
HILL AFB       SUNNY     82  50  32 W5        30.20F
LOGAN          SUNNY     83  49  30 N7        30.17F
OGDEN          SUNNY     83  52  34 VRB7      30.17F
PROVO AIRPORT  MOSUNNY   79  54  41 S5        30.20F
SALT LAKE CITY MOSUNNY   86  46  24 NW6       30.15F
VERNAL         SUNNY     83  44  25 S6        30.20F
WENDOVER       SUNNY     84  45  24 SE6       30.18F
HEBER CITY     MOSUNNY   77  50  38 CALM      30.24F
WEST JORDAN    SUNNY     84  55  37 N3        30.19F

$$

UTZ012>022-026-027-012000-

SOUTHERN UTAH

CITY           SKY/WX    TMP DP  RH WIND       PRES   REMARKS
BRYCE CANYON   SUNNY     76  49  38 NW12      30.38F
CEDAR CITY     SUNNY     81  47  30 CALM      30.24F
MILFORD        SUNNY     83  47  28 VRB3      30.20F
MOAB/CYNLANDS  SUNNY     82  53  36 VRB3      30.13F
PRICE          PTSUNNY   81  45  28 E9        30.24F
ST GEORGE      PTCLDY    93  52  24 W6        30.05F HX  90

$$

REGIONAL REPORTS     COLORADO/ARIZONA

CITY           SKY/WX    TMP DP  RH WIND       PRES   REMARKS
CRAIG, CO      MOSUNNY   69  47  45 N7        30.27F
GRAND JUNCTION MOSUNNY   82  49  31 NW8       30.17F
RIFLE          MOSUNNY   71  52  50 NE8       30.26F
MONTROSE       MOSUNNY   81  46  29 VRB3      30.25F
CORTEZ         SUNNY     79  49  34 SW7       30.25F
PAGE, AZ       SUNNY     88  48  25 W8        30.13F
GRAND CANYON   MOSUNNY   79  49  34 NW9       30.33F
KINGMAN        SUNNY     93  51  23 SW22G30   30.10S HX  90
FLAGSTAFF      LGT RAIN  70  53  54 E5        30.36S

$$

REGIONAL REPORTS    NEVADA/IDAHO/WYOMING

CITY           SKY/WX    TMP DP  RH WIND       PRES   REMARKS
LAS VEGAS, NV  MOSUNNY   98  52  21 VRB5      29.93F HX  95
ELY            SUNNY     81  38  21 N9        30.29F
ELKO           SUNNY     83  44  25 NE7       30.22F
POCATELLO, ID  MOSUNNY   86  45  23 SW7       30.18F
BURLEY         SUNNY     83  45  26 CALM      30.15F
EVANSTON, WY   MOSUNNY   77  28  16 NE10      30.35F
ROCK SPRINGS   MOSUNNY   81  29  15 E9        30.33F

$$


USA.gov is the U.S. government's official web portal to all federal, state and local government web resources and services.